Taurus 1
1 44530U 19059C   25123.86009040  .00011040  00000-0  20494-2 0  9997
2 44530  98.6026 261.5323 0010810 148.5270 211.6580 14.65352902298568
Duchifat 3
1 44854U 19089C   25123.66003492  .00064931  00000-0  14020-2 0  9997
2 44854  36.9438 229.3956 0001384 323.3868  36.6793 15.43456511297237
TO-108
1 44881U 19093C   25123.85098015  .00001648  00000-0  19676-3 0  9997
2 44881  97.7931 200.2686 0013615 358.4992   1.6180 14.85521601290621
FloripaSat 1
1 44885U 19093G   25123.81611082  .00007367  00000-0  62721-3 0  9995
2 44885  97.8148 211.3560 0009935 333.8398  26.2321 14.98057533291248
RS-44
1 44909U 19096E   25123.41876958  .00000029  00000-0  70806-4 0  9998
2 44909  82.5205 251.9656 0217726  22.7587 338.2988 12.79740298249937
UPMSat 2
1 46276U 20061E   25123.75966144  .00079019  00000-0  83434-3 0  9990
2 46276  97.2462 197.0337 0001259 148.6794 211.4541 15.63958760259704
SALSAT
1 46495U 20068K   25123.48196344  .00013309  00000-0  58161-3 0  9996
2 46495  97.8589  99.8183 0009632 295.5783  64.4456 15.22194572252885
CubeSX-Sirius-HSE
1 47951U 21022V   25123.73046741  .00323511  00000-0  17195-2 0  9998
2 47951  97.4166  34.9806 0009603  98.0987 262.1370 15.79555387228008
CubeSX-HSE
1 47952U 21022W   25123.87336005  .00281610  00000-0  14670-2 0  9997
2 47952  97.4184  35.3860 0008902  96.4384 263.7897 15.80115796228041
GRBAlpha
1 47959U 21022AD  25123.79056537  .00306363  00000-0  16619-2 0  9992
2 47959  97.4166  35.3989 0009147  96.8846 263.3462 15.79151146226857
TUBIN
1 48900U 21059X   25123.87950565  .00055960  00000-0  76567-3 0  9995
2 48900  97.6741 290.2217 0002552  16.4766 343.6571 15.57245873214322
LEDSAT
1 49069U 21073D   25123.76845339  .00084369  00000-0  12027-2 0  9993
2 49069  97.3902 203.9020 0011755 206.0134 154.0531 15.55947727205706
CUTE
1 49263U 21088D   25123.72965269  .00020126  00000-0  41980-3 0  9998
2 49263  97.4517 198.9525 0008146  26.9420 333.2250 15.45554844198731
TeikyoSat 4
1 49396U 21102B   25123.58063368  .00003888  00000-0  26002-3 0  9999
2 49396  97.4139 163.3419 0010918 258.4981 101.5022 15.07477217190977
Z-Sat
1 49399U 21102E   25123.81130958  .00006405  00000-0  35432-3 0  9993
2 49399  97.3832 166.4374 0017083 227.5165 132.4624 15.14076957191419
KOSEN 1
1 49402U 21102H   25123.87168623  .00010278  00000-0  48189-3 0  9990
2 49402  97.3742 169.6390 0015636 201.4517 158.6065 15.19757737191710
HO-113
1 50466U 21131B   25123.88482706  .00000986  00000-0  32210-3 0  9999
2 50466  98.5086 213.4219 0003198 234.1242 125.9650 14.40766389176167
IRIS-A
1 51044U 22002BN  25123.73974206  .00314274  00000-0  13243-2 0  9997
2 51044  97.3232 202.3585 0005298 242.1296 117.9438 15.84648226184032
Foresail-1
1 52766U 22057AL  25123.86482508  .00207285  00000-0  11084-2 0  9996
2 52766  97.6040 271.7300 0001352 295.4582  64.6545 15.79774854164075
SNUGLITE 2
1 52899U 22065F   25123.63025063  .00002325  00000-0  46145-3 0  9991
2 52899  98.1634 265.9767 0006823 221.2175 138.8512 14.63115999151088
IO-117
1 53106U 22080B   25051.21822557 -.00000003  00000-0  00000+0 0  9995
2 53106  70.1434 106.3440 0008542  48.0089 312.1297  6.42557744 61200
UmKA 1 (RS40S)
1 57172U 23091G   25123.88749488  .00008521  00000-0  45939-3 0  9995
2 57172  97.5610 179.4663 0016288 101.6643 258.6418 15.14914321101922
CubeBel-2 (EU11S)
1 57175U 23091K   25123.87735901  .00013424  00000-0  65066-3 0  9993
2 57175  97.5608 180.3889 0014169 110.1064 250.1696 15.18562272101980
VERONIKA
1 58261U 23174F   25123.83562653  .00124098  00000-0  14387-2 0  9999
2 58261  97.4138 208.0684 0007389 186.6890 173.4270 15.61362004 82933
ENSO
1 58470U 23185J   25123.86676076  .00060885  00000-0  10084-2 0  9994
2 58470  97.3754 197.9143 0008478 204.7541 155.3306 15.51935843 79334
EIRSAT-1
1 58472U 23185L   25123.85240034  .00099494  00000-0  12011-2 0  9996
2 58472  97.3717 199.2560 0007715 204.6114 155.4776 15.60383728 79422
SONATE-2
1 59112U 24043Q   25123.60131613  .00026013  00000-0  77825-3 0  9999
2 59112  97.5083 254.0849 0010717 241.6510 118.3652 15.34477911 64669
MO-122
1 60209U 24125G   25123.55788744  .00026428  00000-0  78080-3 0  9990
2 60209  97.2840 335.6174 0017620 269.4854  90.4370 15.34770270 46270
GRBBeta
1 60237U 24128C   25123.59941224  .00006241  00000-0  47351-3 0  9990
2 60237  61.9913 208.4619 0048771  49.1679 311.3624 15.02303986 44647
Curium One
1 60242U 24128H   25123.56086418  .00011042  00000-0  77712-3 0  9997
2 60242  61.9810 207.4047 0048597  44.6262 315.8726 15.04542798 44669
ROBUSTA-3A
1 60243U 24128J   25123.61906935  .00011132  00000-0  79348-3 0  9996
2 60243  61.9880 207.9096 0047151  42.4469 318.0254 15.04120426 44667
CatSat
1 60246U 24125J   25123.54245140  .00015103  00000-0  51519-3 0  9994
2 60246  97.2629 335.2234 0042187 224.3306 135.4554 15.29565724 44325
HYPERVIEW-1G (RS66S)
1 61772U 24199AP  25123.90362925  .00026782  00000-0  81312-3 0  9990
2 61772  97.3588 352.8675 0012623 330.7785  29.2750 15.33982894 71339
AO-123
1 61781U 24199AY  25123.84440451  .00010164  00000-0  37522-3 0  9995
2 61781  97.3599 352.0575 0015016 334.1268  25.9219 15.27847073 71273
ZIMSAT 2
1 61783U 24199BA  25123.87103090  .00043216  00000-0  11480-2 0  9993
2 61783  97.3570 353.2000 0012488 328.5579  31.4918 15.38063556 74507
HADES-R (SO-124)
1 62690U 25009CK  25123.21306911  .00058920  00000-0  22446-2 0  9999
2 62690  97.4095 204.2381 0004003 195.9742 164.1371 15.26493157 16444
HYDRA-T
1 62692U 25009CM  25123.20398411  .00058945  00000-0  22323-2 0  9997
2 62692  97.4094 204.2489 0003948 192.5161 167.5980 15.26689578 16446
JINJUSat 1B
1 63210U 25052A   25122.94521256  .00019140  00000-0  89625-3 0  9990
2 63210  97.4452  17.5607 0006571  93.6640 266.5346 15.19748096  7535
NUSHSAT 1
1 63211U 25052B   25123.47122917  .00022522  00000-0  10490-2 0  9992
2 63211  97.4444  18.0757 0006586  95.8121 264.3865 15.19898124  7612
TEVEL2-4
1 63213U 25052D   25123.60976215  .00019230  00000-0  90320-3 0  9990
2 63213  97.4360  18.1457 0005598 106.7856 253.3994 15.19647487  7635
TEVEL2-5
1 63214U 25052E   25123.21489005  .00021753  00000-0  10217-2 0  9993
2 63214  97.4361  17.7564 0005601 107.4869 252.6979 15.19621004  7573
TEVEL2-6
1 63215U 25052F   25123.15019809  .00020364  00000-0  95805-3 0  9992
2 63215  97.4355  17.6906 0005639 108.2533 251.9315 15.19576740  7565
TEVEL2-1
1 63217U 25052H   25123.41958419  .00020572  00000-0  97301-3 0  9996
2 63217  97.4338  17.9268 0005712 117.0186 243.1632 15.19390599  7602
TEVEL2-2
1 63218U 25052J   25123.88083575  .00015205  00000-0  72029-3 0  9997
2 63218  97.4336  18.3805 0005689 116.8501 243.3315 15.19400248  7674
TEVEL2-3
1 63219U 25052K   25123.88085910  .00014982  00000-0  70989-3 0  9997
2 63219  97.4336  18.3805 0005678 116.8132 243.3684 15.19397177  7678
TEVEL2-8
1 63237U 25052AD  25123.45630667  .00021022  00000-0  10275-2 0  9999
2 63237  97.4400  17.9177 0009801 134.7333 225.4701 15.18214439  7603
TEVEL2-9
1 63238U 25052AE  25123.45735838  .00019447  00000-0  95228-3 0  9996
2 63238  97.4398  17.9175 0009851 134.8377 225.3659 15.18166425  7604
TEVEL2-7
1 63239U 25052AF  25123.52437015  .00019124  00000-0  93748-3 0  9998
2 63239  97.4401  17.9801 0009852 135.0723 225.1310 15.18132693  7618
HYDRA-W
1 63490U 25052BL  25123.47112711  .00040758  00000-0  18164-2 0  9999
2 63490  97.4348  18.0207 0014272 134.7155 225.5246 15.21213879  7618
HADES-ICM
1 63492U 25052BN  25123.80594576  .00033607  00000-0  15131-2 0  9997
2 63492  97.4356  18.3404 0014437 137.2936 222.9424 15.20906304  7664
